Date,TemperatureHighF,TemperatureAvgF,TemperatureLowF,DewpointHighF,DewpointAvgF,DewpointLowF,HumidityHigh,HumidityAvg,HumidityLow,PressureMaxIn,PressureMinIn,WindSpeedMaxMPH,WindSpeedAvgMPH,GustSpeedMaxMPH,PrecipitationSumIn
2012-12-1,62.0,59.8,57.9,61.3,58.8,57.0,98,97,95,30.08,29.97,17,4,18,1.78
2012-12-2,61.6,57.9,48.6,60.8,56.8,47.5,98,96,93,30.12,29.88,22,6,22,1.92
2012-12-3,63.9,52.4,44.5,56.0,49.7,43.4,100,91,72,30.22,30.11,6,1,6,0.00
2012-12-4,61.3,54.8,49.4,58.1,52.7,48.3,98,93,81,30.27,30.19,6,0,6,0.00
2012-12-5,64.2,59.5,55.9,63.5,58.5,54.5,98,97,95,30.22,30.07,5,0,5,0.64
2012-12-6,61.6,55.1,46.3,56.7,52.5,44.4,98,91,78,30.14,30.06,7,1,7,0.00
2012-12-7,66.8,50.6,41.8,57.4,47.5,40.7,98,90,64,30.15,30.06,8,1,8,0.02
2012-12-8,64.3,47.4,36.8,54.1,43.1,35.7,97,86,57,30.10,30.01,8,1,8,0.00
2012-12-9,70.8,50.5,37.5,54.2,43.1,35.7,100,80,37,30.19,30.09,13,1,13,0.00
2012-12-10,72.4,50.4,37.2,53.6,43.9,35.6,96,81,44,30.22,30.11,7,1,7,0.00
2012-12-11,67.5,49.2,33.4,56.1,43.8,31.6,95,83,51,30.13,29.89,8,1,8,0.01
2012-12-12,57.9,49.2,37.5,51.3,45.2,35.1,96,87,65,29.92,29.85,12,1,12,0.08
2012-12-13,58.1,42.0,32.6,48.6,37.0,30.0,96,84,54,29.93,29.83,8,1,8,0.01
2012-12-14,54.9,41.2,31.1,46.6,37.5,28.6,100,87,66,30.05,29.87,4,0,4,0.01
2012-12-15,46.3,41.8,35.0,45.2,40.5,33.7,96,95,92,30.13,30.01,9,0,9,0.18
2012-12-16,55.3,50.2,44.9,53.5,48.7,43.4,97,95,89,30.14,30.05,7,0,7,0.11
2012-12-17,57.6,53.3,44.3,56.7,52.3,42.8,100,96,95,30.10,29.99,15,2,15,1.18
2012-12-18,55.3,42.8,32.7,46.7,38.0,30.2,97,85,52,30.21,30.00,13,1,14,0.02
2012-12-19,56.1,38.3,27.9,41.3,32.2,26.1,95,81,36,30.34,30.21,10,1,10,0.00
2012-12-20,57.9,40.2,27.3,44.9,35.0,25.5,95,83,51,30.28,30.07,13,1,13,0.00
2012-12-21,54.7,49.5,44.0,52.7,44.9,33.2,95,85,57,30.07,29.94,17,3,17,0.85
2012-12-22,56.5,53.9,51.1,55.4,52.4,49.4,96,94,90,30.13,29.89,22,5,22,0.81
2012-12-23,58.2,53.2,48.7,57.5,52.2,47.3,100,96,94,30.12,29.90,24,4,24,3.65
2012-12-24,59.3,47.8,40.5,52.4,44.6,39.4,98,89,64,30.21,30.03,5,1,5,0.01
2012-12-25,49.5,44.8,39.6,48.4,43.6,38.3,97,96,93,30.17,29.87,5,0,7,0.74
2012-12-26,54.2,46.6,42.0,51.7,45.0,40.4,98,94,86,30.13,29.91,7,0,7,0.02
2012-12-27,57.7,44.3,36.3,50.5,40.5,33.9,97,87,62,30.21,30.10,9,1,9,0.00
2012-12-28,53.3,41.8,34.5,48.9,39.3,33.0,97,91,68,30.21,30.05,7,0,7,0.00
2012-12-29,51.4,45.0,38.2,50.2,43.2,36.6,100,94,90,30.11,29.99,5,0,5,0.12
2012-12-30,57.7,41.6,32.8,49.5,38.0,30.6,97,88,61,30.19,30.05,8,1,8,0.00
2012-12-31,56.2,40.6,29.0,44.6,35.9,27.5,95,85,47,30.31,30.19,7,1,7,0.01